This is the latest recevied weather packets stored in our database for station/object OE5HCE. If no packets are shown the sender has not sent any weather packets the latest 1 day(s).
| Time | Temp. | Humidity | Pressure | Rain* | Wind** | Luminosity | Snow |
|---|---|---|---|---|---|---|---|
| 1778031003 | 13.89° C | 77% | 1008.5 hPa | 0 mm | 0 m/s | 0 W/m² | - |
| 1778030103 | 14.44° C | 77% | 1008.8 hPa | 0 mm | 0 m/s | 0 W/m² | - |
| 1778029202 | 14.44° C | 77% | 1008.9 hPa | 0 mm | 0 m/s | 0 W/m² | - |
| 1778028301 | 14.44° C | 77% | 1009.1 hPa | 0 mm | 0 m/s | 0 W/m² | - |
| 1778027460 | 14.44° C | 77% | 1009.3 hPa | 0 mm | 0 m/s | 0 W/m² | - |
| 1778026562 | 14.44° C | 77% | 1009.2 hPa | 0 mm | 0 m/s | 0 W/m² | - |
| 1778025661 | 14.44° C | 77% | 1009.2 hPa | 0 mm | 0 m/s | 0 W/m² | - |
| 1778024757 | 14.44° C | 77% | 1009.1 hPa | 0 mm | 0 m/s | 0 W/m² | - |
| 1778023855 | 14.44° C | 76% | 1009.2 hPa | 0 mm | 0 m/s | 0 W/m² | - |
| 1778022955 | 14.44° C | 76% | 1008.9 hPa | 0 mm | 0 m/s | 0 W/m² | - |
| 1778022052 | 13.89° C | 75% | 1008.9 hPa | 0 mm | 0 m/s | 0 W/m² | - |
| 1778021170 | 13.89° C | 72% | 1008.6 hPa | 0 mm | 0 m/s | 0 W/m² | - |
| 1778020241 | 13.33° C | 68% | 1008.4 hPa | 0 mm | 0 m/s | 0 W/m² | - |
| 1778019345 | 13.33° C | 67% | 1008 hPa | 0 mm | 0 m/s | 0 W/m² | - |
| 1778018451 | 13.33° C | 68% | 1007.9 hPa | 0 mm | 0 m/s | 0 W/m² | - |
| 1778017534 | 13.33° C | 68% | 1007.7 hPa | 0 mm | 0 m/s | 0 W/m² | - |
| 1778016638 | 13.33° C | 69% | 1007.5 hPa | 0 mm | 0 m/s | 0 W/m² | - |
| 1778015738 | 13.89° C | 69% | 1007.2 hPa | 0 mm | 0 m/s | 0 W/m² | - |
| 1778014841 | 13.89° C | 70% | 1007.1 hPa | 0 mm | 0 m/s | 0 W/m² | - |
| 1778013931 | 14.44° C | 72% | 1006.9 hPa | 0 mm | 0 m/s | 0 W/m² | - |
| 1778013030 | 14.44° C | 72% | 1006.8 hPa | 0 mm | 0 m/s | 0 W/m² | - |
| 1778012129 | 14.44° C | 73% | 1006.8 hPa | 0 mm | 0 m/s | 0 W/m² | - |
| 1778011228 | 14.44° C | 72% | 1006.5 hPa | 0 mm | 0 m/s | 0 W/m² | - |
| 1778010328 | 14.44° C | 72% | 1006.3 hPa | 0 mm | 0 m/s | 0 W/m² | - |
| 1778009434 | 14.44° C | 72% | 1006.1 hPa | 0 mm | 0 m/s | 0 W/m² | - |
* Rain latest hour (hover to see other rain measurements)
** Current wind speed in m/s (hover to see current wind gust speed)